Regional Weather Roundup
Issued by NWS

Home | Current Version | Previous Version | Graphics & Text | Print | Product List | Glossary On
Versions: 1 2 3 4 5 6 7 8 9 10 11 12 13 14 15 16 17 18 19 20 21 22 23 24 25 26 27 28 29 30 31 32 33 34 35 36 37 38 39 40 41 42 43 44 45 46 47 48 49 50
000
ASUS43 KFSD 170110
RWRSD

WEATHER ROUNDUP FOR SOUTH DAKOTA
NATIONAL WEATHER SERVICE SIOUX FALLS SD
700 PM CST THU NOV 16 2017

NOTE: "FAIR" INDICATES FEW OR NO CLOUDS BELOW 12,000 FEET WITH NO
SIGNIFICANT WEATHER AND/OR OBSTRUCTIONS TO VISIBILITY.


SDZ001>005-009-010-012>017-170200-
NORTHWEST AND NORTH CENTRAL SOUTH DAKOTA

CITY           SKY/WX    TMP DP  RH WIND       PRES   REMARKS
BUFFALO          N/A     35  26  69 E3        29.43S
FAITH            N/A     43  31  62 S15       29.47F
MOBRIDGE       CLOUDY    42  28  57 E13       29.51F
$$

SDZ012>016-024>037-041>051-057-063-072>074-170200-
SOUTHWEST AND SOUTH CENTRAL SOUTH DAKOTA

CITY           SKY/WX    TMP DP  RH WIND       PRES   REMARKS
RAPID CTY ARPT CLOUDY    65  27  23 SW15      29.51R
PIERRE         CLOUDY    53  32  44 SE16      29.50F
CUSTER         CLOUDY    56  21  25 W15G21    29.64S
ELLSWORTH AFB  CLOUDY    67  28  23 SW13G26   29.50S
PHILIP         CLOUDY    63  31  30 S8        29.49S
PINE RIDGE     CLEAR     56  30  37 S12       29.61R
SPEARFISH      FAIR      64  28  25 SW20G31   29.52S
WINNER         FAIR      58  33  39 S24G36    29.58F
$$

SDZ004>011-016>023-039-040-170200-
NORTHEAST SOUTH DAKOTA

CITY           SKY/WX    TMP DP  RH WIND       PRES   REMARKS
ABERDEEN       CLOUDY    39  26  59 SE25G32   29.65F
WATERTOWN      CLOUDY    34  25  69 SE21G28   29.73F WCI  22
BROOKINGS      CLOUDY    33  25  72 S24G32    29.78F WCI  20
SISSETON         N/A     30  25  81 SE24G33   29.76F WCI  16
$$

SDZ017-020-022-023-036>040-048>070-170200-
SOUTHEAST SOUTH DAKOTA

CITY           SKY/WX    TMP DP  RH WIND       PRES   REMARKS
SIOUX FALLS    CLOUDY    38  27  64 SE15      29.81F
HURON          CLOUDY    41  27  57 SE24G36   29.66F
CHAMBERLAIN    CLOUDY    54  35  47 SE8G16    29.61R
MITCHELL       CLOUDY    44  28  53 SE22G30   29.71F
YANKTON        PTCLDY    43  28  55 SE24G31   29.77F
$$

ABBREVIATIONS USED IN REMARKS
   TC - TEMPERATURE IN CELSIUS
  WCI - WIND CHILL INDEX
   HX - HEAT INDEX
  VSB - VISIBILITY





USA.gov is the U.S. government's official web portal to all federal, state and local government web resources and services.